When you browse on this site, cookies collect data to enhance your experience and personalize the content and advertising you see.
Visit our Privacy Policy to learn more. By continuing to use the site, you agree to this use of cookies and data.
  • en France
  • Liste des pays
  • À 7 jours
  • Température de l'eau
  • Carte météo
  • Widgets météo
  • user-avatar
    Se connecter

    Météo par heure à Samroung

    Ce jour, 1 Juin, Lundi

    Heure Température Précipitation Vent Pression Humidité
    00:00 +27°C° 0 mm 1 m/s 757 mmHg 90%
    01:00 +27°C° 0 mm 1 m/s 757 mmHg 89%
    02:00 +27°C° 0 mm 1 m/s 756 mmHg 88%
    03:00 +27°C° 0 mm 1 m/s 756 mmHg 88%
    04:00 +27°C° 0 mm 1 m/s 755 mmHg 88%
    05:00 +28°C° 0 mm 1 m/s 756 mmHg 86%
    06:00 +28°C° 0 mm 1 m/s 756 mmHg 85%
    07:00 +29°C° 0 mm 1 m/s 756 mmHg 82%
    08:00 +31°C° 0 mm 1 m/s 756 mmHg 74%
    09:00 +33°C° 0 mm 1 m/s 757 mmHg 66%
    10:00 +35°C° 0 mm 1 m/s 757 mmHg 58%
    11:00 +35°C° 0.1 mm 1 m/s 756 mmHg 58%
    12:00 +35°C° 0.1 mm 1 m/s 756 mmHg 57%
    13:00 +36°C° 0.1 mm 2 m/s 756 mmHg 57%
    14:00 +35°C° 0.7 mm 2 m/s 755 mmHg 62%
    15:00 +34°C° 0.7 mm 2 m/s 755 mmHg 67%
    16:00 +33°C° 0.7 mm 3 m/s 754 mmHg 72%
    17:00 +31°C° 0.1 mm 2 m/s 754 mmHg 77%
    18:00 +30°C° 0.1 mm 2 m/s 755 mmHg 81%
    19:00 +29°C° 0.1 mm 2 m/s 755 mmHg 85%
    20:00 +29°C° 0 mm 1 m/s 755 mmHg 86%
    21:00 +29°C° 0 mm 1 m/s 756 mmHg 87%
    22:00 +29°C° 0 mm 1 m/s 756 mmHg 88%
    23:00 +29°C° 0 mm 1 m/s 756 mmHg 89%

    Demain, 2 Juin, Mardi

    Heure Température Précipitation Vent Pression Humidité
    00:00 +29°C° 0 mm 1 m/s 756 mmHg 89%
    01:00 +29°C° 0 mm 1 m/s 756 mmHg 89%
    02:00 +29°C° 0.4 mm 1 m/s 755 mmHg 90%
    03:00 +29°C° 0.4 mm 1 m/s 755 mmHg 90%
    04:00 +29°C° 0.4 mm 1 m/s 755 mmHg 91%
    05:00 +28°C° 3.7 mm 1 m/s 755 mmHg 92%
    06:00 +28°C° 3.7 mm 1 m/s 755 mmHg 94%
    07:00 +28°C° 3.7 mm 2 m/s 756 mmHg 95%
    08:00 +29°C° 0.3 mm 1 m/s 756 mmHg 89%
    09:00 +30°C° 0.3 mm 1 m/s 756 mmHg 83%
    10:00 +31°C° 0.3 mm 1 m/s 756 mmHg 78%
    11:00 +32°C° 0.1 mm 2 m/s 756 mmHg 72%
    12:00 +35°C° 0.1 mm 3 m/s 755 mmHg 67%
    13:00 +36°C° 0.1 mm 3 m/s 755 mmHg 62%
    14:00 +35°C° 0.3 mm 4 m/s 754 mmHg 67%
    15:00 +34°C° 0.3 mm 4 m/s 754 mmHg 71%
    16:00 +33°C° 0.3 mm 4 m/s 753 mmHg 76%
    17:00 +31°C° 0.3 mm 3 m/s 754 mmHg 80%
    18:00 +30°C° 0.3 mm 2 m/s 754 mmHg 84%
    19:00 +29°C° 0.3 mm 2 m/s 754 mmHg 88%
    20:00 +29°C° 0 mm 2 m/s 755 mmHg 89%
    21:00 +29°C° 0 mm 2 m/s 755 mmHg 90%
    22:00 +29°C° 0 mm 2 m/s 756 mmHg 91%
    23:00 +29°C° 0.1 mm 2 m/s 756 mmHg 91%

    Après-demain, 3 Juin, Mercredi

    Heure Température Précipitation Vent Pression Humidité
    00:00 +29°C° 0.1 mm 2 m/s 755 mmHg 91%
    01:00 +29°C° 0.1 mm 2 m/s 755 mmHg 91%
    02:00 +28°C° 0 mm 1 m/s 755 mmHg 91%
    03:00 +28°C° 0 mm 1 m/s 754 mmHg 91%
    04:00 +28°C° 0 mm 1 m/s 754 mmHg 91%
    05:00 +28°C° 0 mm 1 m/s 754 mmHg 89%
    06:00 +29°C° 0 mm 1 m/s 755 mmHg 87%
    07:00 +27°C° 0 mm 0 m/s 755 mmHg 85%
    08:00 +31°C° 0.1 mm 1 m/s 755 mmHg 78%
    09:00 +32°C° 0.1 mm 2 m/s 755 mmHg 72%
    10:00 +35°C° 0.1 mm 2 m/s 755 mmHg 65%
    11:00 +34°C° 1.5 mm 2 m/s 755 mmHg 68%
    12:00 +34°C° 1.5 mm 2 m/s 755 mmHg 71%
    13:00 +34°C° 1.5 mm 2 m/s 754 mmHg 75%
    14:00 +34°C° 0.5 mm 3 m/s 754 mmHg 74%
    15:00 +33°C° 0.5 mm 3 m/s 753 mmHg 73%
    16:00 +33°C° 0.5 mm 3 m/s 753 mmHg 73%
    17:00 +31°C° 0.4 mm 3 m/s 753 mmHg 78%
    18:00 +30°C° 0.4 mm 3 m/s 753 mmHg 83%
    19:00 +29°C° 0.4 mm 2 m/s 754 mmHg 88%
    20:00 +29°C° 0 mm 2 m/s 754 mmHg 89%
    21:00 +28°C° 0 mm 1 m/s 755 mmHg 89%
    22:00 +28°C° 0 mm 1 m/s 755 mmHg 89%
    23:00 +28°C° 0 mm 1 m/s 755 mmHg 89%

    4 Juin, Jeudi

    Heure Température Précipitation Vent Pression Humidité
    00:00 +28°C° 0 mm 1 m/s 755 mmHg 89%
    01:00 +28°C° 0 mm 1 m/s 754 mmHg 90%
    02:00 +28°C° 0 mm 1 m/s 754 mmHg 89%
    03:00 +28°C° 0 mm 1 m/s 754 mmHg 89%
    04:00 +27°C° 0 mm 1 m/s 754 mmHg 88%
    05:00 +28°C° 0 mm 1 m/s 754 mmHg 87%
    06:00 +29°C° 0 mm 1 m/s 754 mmHg 85%
    07:00 +29°C° 0 mm 1 m/s 755 mmHg 83%
    08:00 +31°C° 0.1 mm 2 m/s 755 mmHg 78%
    09:00 +33°C° 0.1 mm 3 m/s 755 mmHg 72%
    10:00 +34°C° 0.1 mm 3 m/s 755 mmHg 66%
    11:00 +34°C° 0.2 mm 3 m/s 755 mmHg 66%
    12:00 +35°C° 0.2 mm 3 m/s 754 mmHg 65%
    13:00 +35°C° 0.2 mm 4 m/s 754 mmHg 65%
    14:00 +34°C° 0.1 mm 4 m/s 754 mmHg 66%
    15:00 +34°C° 0.1 mm 3 m/s 753 mmHg 66%
    16:00 +34°C° 0.1 mm 3 m/s 753 mmHg 67%
    17:00 +31°C° 0 mm 3 m/s 753 mmHg 74%
    18:00 +30°C° 0 mm 2 m/s 753 mmHg 80%
    19:00 +29°C° 0 mm 1 m/s 754 mmHg 86%
    20:00 +29°C° 0 mm 1 m/s 754 mmHg 87%
    21:00 +28°C° 0 mm 1 m/s 755 mmHg 87%
    22:00 +28°C° 0 mm 1 m/s 755 mmHg 88%
    23:00 +28°C° 0 mm 1 m/s 755 mmHg 87%

    5 Juin, Vendredi

    Heure Température Précipitation Vent Pression Humidité
    00:00 +28°C° 0 mm 1 m/s 755 mmHg 87%
    01:00 +28°C° 0 mm 1 m/s 754 mmHg 87%
    02:00 +28°C° 0 mm 1 m/s 754 mmHg 88%
    03:00 +28°C° 0 mm 1 m/s 754 mmHg 88%
    04:00 +28°C° 0 mm 1 m/s 753 mmHg 88%
    05:00 +28°C° 0 mm 1 m/s 754 mmHg 86%
    06:00 +29°C° 0 mm 2 m/s 754 mmHg 84%
    07:00 +30°C° 0 mm 2 m/s 754 mmHg 83%
    08:00 +31°C° 0 mm 2 m/s 755 mmHg 76%
    09:00 +33°C° 0 mm 3 m/s 755 mmHg 70%
    10:00 +35°C° 0 mm 3 m/s 755 mmHg 64%
    11:00 +35°C° 0.4 mm 3 m/s 755 mmHg 64%
    12:00 +35°C° 0.4 mm 4 m/s 754 mmHg 65%
    13:00 +35°C° 0.4 mm 4 m/s 754 mmHg 65%
    14:00 +34°C° 1.3 mm 4 m/s 753 mmHg 69%
    15:00 +34°C° 1.3 mm 3 m/s 753 mmHg 73%
    16:00 +33°C° 1.3 mm 3 m/s 753 mmHg 76%
    17:00 +31°C° 0.1 mm 2 m/s 753 mmHg 80%
    18:00 +30°C° 0.1 mm 2 m/s 753 mmHg 84%
    19:00 +29°C° 0.1 mm 2 m/s 754 mmHg 87%
    20:00 +29°C° 0 mm 2 m/s 754 mmHg 89%
    21:00 +28°C° 0 mm 1 m/s 755 mmHg 90%
    22:00 +28°C° 0 mm 1 m/s 755 mmHg 91%
    23:00 +28°C° 0 mm 1 m/s 755 mmHg 91%

    6 Juin, Samedi

    Heure Température Précipitation Vent Pression Humidité
    00:00 +28°C° 0 mm 1 m/s 754 mmHg 92%
    01:00 +28°C° 0 mm 2 m/s 754 mmHg 93%
    02:00 +28°C° 0 mm 2 m/s 753 mmHg 93%
    03:00 +28°C° 0 mm 2 m/s 753 mmHg 92%
    04:00 +28°C° 0 mm 2 m/s 753 mmHg 92%
    05:00 +29°C° 0.1 mm 3 m/s 753 mmHg 90%
    06:00 +29°C° 0.1 mm 3 m/s 753 mmHg 89%
    07:00 +30°C° 0.1 mm 3 m/s 754 mmHg 87%
    08:00 +30°C° 1.4 mm 3 m/s 754 mmHg 83%
    09:00 +32°C° 1.4 mm 4 m/s 754 mmHg 80%
    10:00 +33°C° 1.4 mm 4 m/s 755 mmHg 76%
    11:00 +32°C° 1 mm 4 m/s 754 mmHg 76%
    12:00 +32°C° 1 mm 5 m/s 754 mmHg 77%
    13:00 +32°C° 1 mm 5 m/s 754 mmHg 77%
    14:00 +32°C° 0.5 mm 5 m/s 753 mmHg 78%
    15:00 +32°C° 0.5 mm 5 m/s 753 mmHg 78%
    16:00 +30°C° 0.5 mm 5 m/s 752 mmHg 79%
    17:00 +30°C° 0.1 mm 4 m/s 753 mmHg 83%
    18:00 +29°C° 0.1 mm 4 m/s 753 mmHg 87%
    19:00 +28°C° 0.1 mm 3 m/s 753 mmHg 91%
    20:00 +28°C° 0 mm 3 m/s 754 mmHg 90%
    21:00 +28°C° 0 mm 3 m/s 754 mmHg 89%
    22:00 +28°C° 0 mm 3 m/s 755 mmHg 89%
    23:00 +28°C° 0.2 mm 3 m/s 754 mmHg 90%
    Voir plus